NOAA 16 DEB, 41667

Orbit data source: Space-Track

NOAA 16 DEB, 41667 is space debris in SSO originally from a launch on Thu, 21 Sep 2000 UTC launched from the Air Force Western Test Range (AFWTR). Debris objects in space refer to the collection of defunct objects orbiting the Earth. Examples of debris include non-operational satellites, rocket bodies, and fragments generated from explosions, collisions, or faulty payload assembly.

Loading next visibility...
Identifier
41667, 2000-055PG
Orbit
SSO
Last TLE update
1 week ago
Origin
Manufacturer
Unknown
Mission
Spacecraft
Bus & Motor
Unknown
Mass
Unknown
Launch date (UTC)
2000-09-21 (25 years ago)
Launch vehicle
Unknown
Launch site
Air Force Western Test Range (AFWTR)
Object type
Payload
Rocket body
Debris
Shape & HBR
Unknown
Radar Cross Section
Small (<0.1 m²)

Expand to show TLE details & history

TLE from 1 week ago
0 NOAA 16 DEB
1 41667U 00055PG  25191.50738567  .00000779  00000-0  35302-3 0  9992
2 41667  98.7687 292.0220 0031273  86.9894 273.4863 14.24537858479457
Epoch: 2025-07-10T12:10Z
TLE epoch observation values (Epoch: 2025-07-10T12:10:38.121Z)
Latitude
-0.00003°
Longitude
-179.30951°
Altitude
811.669 km
Speed
7.448 km/s
True Right ascension
19h 28m 05s
True Declination
0° 00' 00"
Sunlit
Object was in full shadow at epoch
Visualization orbit readout
Latitude
-45.81692°
Longitude
0.06318°
Altitude
849.247 km
Speed
7.416 km/s
Apparent Right ascension
03h 56m 40s
Apparent Declination
-57° 15' 33"
Sunlit
Object is in daylight
Visualization observer readout
Local Sidereal Time
12:18:42
Azimuth
224.786° SW
Elevation
-51.321°
Doppler factor
1
Orbital elements
Apogee altitude
829.673 km
Perigee altitude
784.731 km
Semi-major axis
7,185.339 km
Eccentricity
0.00313
Inclination
98.7687°
RAAN
292.022°
Arg. of periapsis
86.9894°
True anomaly
273.12852°
Mean anomaly
273.4863°
Eccentric anomaly
273.30742°
Mean motion
3.56346 °/min
Orbital period
101.03 mins
BSTAR
0.00035302
Loading maneuver chart data...
Loading SW <> Apogee altitude chart data...
Loading historical data...
Loading historical data...
Loading historical data...
Loading historical data...
Loading historical data...
Loading historical data...
Loading historical data...
|